Temp
51 57 63 66 67 67 68 68 68 68 69 69 70 71 71 71 72 73 73 75 76 76 77 78 77 76 76 76 77 78 78 77 77 76 75 75 77 79 78 77 77 77 79
53 58 62 65 66 66 67 67 67 67 68 68 69 69 70 70 70 70 71 72 73 75 75 76 76 76 76 75 76 76 78 77 76 75 74 73 74 77 78 77 77 77 79
52 56 58 64 65 65 65 66 66 66 66 67 67 68 68 68 69 69 69 70 70 71 72 73 74 74 75 75 75 75 76 76 75 74 74 71 71 77 77 76 77 78 78
54 55 58 63 63 64 64 64 65 65 65 66 66 66 67 67 67 67 67 68 68 69 70 70 70 71 71 73 74 75 76 76 75 73 71 74 75 77 77 77 77 78 77
52 54 58 61 62 62 63 63 64 64 64 64 65 65 65 66 66 66 66 66 66 67 68 68 69 69 69 70 72 74 73 72 74 73 70 71 72 77 78 77 77 77 77
51 53 57 60 61 61 61 62 62 63 63 63 63 64 64 64 65 64 64 65 65 66 66 67 67 68 68 68 70 71 71 69 70 69 71 72 74 78 78 77 77 77 77
48 50 53 59 60 60 60 61 61 62 62 62 62 63 62 62 63 62 63 63 64 64 65 66 66 67 67 68 69 70 69 67 67 68 69 71 73 79 79 78 76 77 77
48 50 51 58 60 59 59 60 60 60 60 60 60 60 60 60 60 60 61 62 63 63 64 64 64 65 66 68 68 68 67 67 66 66 69 70 74 79 80 79 77 77 77
48 48 47 48 53 57 58 58 59 59 58 58 57 57 56 56 57 58 58 59 61 61 62 62 63 63 63 64 65 65 66 67 65 66 70 71 73 78 80 78 77 77 77
46 45 45 45 46 46 46 57 57 56 56 55 54 54 53 52 53 54 55 56 58 58 59 59 60 60 60 60 61 62 63 63 63 65 65 69 71 74 79 78 77 77 77
45 44 43 44 44 45 47 52 51 53 53 51 49 51 46 44 45 46 52 54 55 54 55 56 56 57 56 55 58 59 59 58 60 64 65 68 69 71 73 75 77 77 77
39 41 42 42 42 43 51 42 42 45 41 41 41 40 42 41 45 46 47 50 51 51 51 52 53 52 50 49 50 54 54 54 56 59 64 66 68 69 71 72 73 76 76
40 41 42 42 41 40 41 39 38 38 37 38 39 39 38 40 39 40 40 41 42 46 43 44 43 45 45 46 47 48 50 52 53 55 59 62 65 68 69 69 71 72 75
39 40 41 40 40 39 38 37 38 38 37 37 38 39 36 35 35 36 37 38 39 40 39 40 41 42 43 45 45 45 46 48 50 53 56 59 62 65 67 68 69 70 72
38 39 39 39 39 40 38 37 37 37 37 37 38 39 37 35 34 35 35 36 37 38 38 38 39 40 41 43 44 44 44 44 46 50 52 56 59 61 64 66 68 69 70
40 38 39 40 40 40 37 36 35 36 37 37 37 38 39 36 34 34 34 35 35 36 37 37 37 39 39 40 41 42 43 44 45 45 49 50 56 58 60 63 66 68 70
39 40 39 39 40 38 38 37 36 36 38 36 37 38 38 38 35 34 33 33 34 35 36 36 37 37 37 40 38 40 42 43 45 45 47 49 50 54 58 62 64 66 67
39 39 40 45 39 38 37 36 37 36 36 35 36 36 38 39 37 34 33 33 34 35 35 34 34 34 34 36 36 38 40 41 42 43 45 47 48 50 53 57 61 64 66
40 39 38 39 38 38 38 37 36 37 34 34 35 34 37 38 38 34 33 33 34 33 33 34 33 33 32 33 37 38 38 38 39 45 43 45 47 49 50 55 58 60 62
37 37 37 37 37 37 35 34 33 33 33 33 33 34 37 36 37 33 33 33 33 31 31 31 31 32 32 32 36 36 36 38 39 38 40 45 46 48 48 51 51 53 57
35 34 35 35 35 33 31 30 30 29 30 32 33 36 36 36 36 34 32 32 32 31 31 33 31 30 30 32 30 32 33 35 35 37 40 40 43 44 45 46 49 50 51
33 34 33 35 34 33 32 31 32 30 30 31 32 34 36 36 35 36 33 32 32 31 31 30 30 30 30 31 28 29 26 31 34 37 38 40 39 41 43 47 47 46 48
33 31 35 35 35 34 34 33 32 31 31 31 31 31 33 35 35 34 33 32 31 30 29 29 29 29 28 30 31 28 24 23 27 34 35 36 37 38 40 42 43 45 47
34 34 33 34 33 35 33 31 29 29 27 28 28 30 31 33 33 33 33 32 31 30 29 29 34 30 29 28 30 34 30 28 24 23 32 34 36 37 37 38 39 41 43
33 31 31 31 32 33 31 30 28 27 27 27 27 27 28 30 32 32 32 31 29 30 29 29 28 28 29 27 28 28 27 28 29 25 22 27 32 35 36 37 38 39 41
32 31 30 30 31 31 30 29 28 25 25 24 25 25 26 27 28 30 32 30 29 29 29 29 29 28 28 27 28 28 28 26 27 26 24 26 26 31 34 36 36 37 38
MSLP
1024.06 1023.72 1023.30 1022.71 1022.06 1021.79 1021.45 1020.87 1020.69 1020.39 1019.94 1019.89 1019.84 1019.37 1019.18 1018.95 1018.59 1018.29 1017.95 1017.77 1017.37 1017.15 1017.01 1016.67 1016.67 1016.67 1016.78 1016.95 1016.68 1016.77 1016.82 1016.93 1017.17 1017.29 1017.27 1017.30 1017.35 1017.41 1017.57 1017.72 1017.75 1017.70 1017.77
1023.96 1023.86 1023.33 1022.82 1022.25 1022.10 1021.87 1021.27 1021.02 1020.90 1020.70 1020.63 1020.31 1019.86 1019.62 1019.67 1019.45 1019.09 1018.85 1018.71 1018.16 1017.70 1017.58 1017.24 1017.08 1016.99 1016.98 1016.94 1016.95 1017.09 1017.07 1017.09 1017.25 1017.45 1017.47 1017.48 1017.57 1017.51 1017.50 1017.65 1017.69 1017.91 1017.95
1023.98 1023.91 1023.70 1022.92 1022.73 1022.50 1022.11 1021.64 1021.35 1021.15 1021.18 1021.02 1021.04 1020.70 1020.41 1020.15 1020.11 1019.68 1019.51 1019.41 1019.00 1018.80 1018.38 1018.02 1017.72 1017.54 1017.37 1017.05 1017.19 1017.42 1017.45 1017.29 1017.34 1017.43 1017.56 1017.80 1017.80 1017.74 1017.77 1017.70 1017.84 1018.03 1018.20
1023.81 1023.98 1023.47 1023.17 1023.04 1022.59 1022.27 1022.00 1021.64 1021.72 1021.79 1021.59 1021.35 1021.27 1020.90 1020.90 1020.89 1020.44 1020.05 1019.83 1019.71 1019.57 1019.22 1018.83 1018.53 1018.30 1018.01 1017.49 1017.40 1017.60 1017.46 1017.43 1017.48 1017.45 1017.54 1017.72 1017.71 1017.80 1017.88 1017.94 1017.91 1018.11 1018.31
1023.88 1023.93 1023.68 1023.38 1023.10 1022.80 1022.68 1022.45 1022.21 1022.19 1022.07 1021.84 1021.71 1021.49 1021.37 1021.27 1021.15 1021.03 1020.69 1020.55 1020.40 1020.16 1019.76 1019.54 1019.23 1018.99 1018.52 1018.16 1017.75 1017.64 1017.64 1017.75 1017.48 1017.41 1017.40 1017.66 1017.54 1017.45 1017.79 1017.92 1018.03 1018.13 1018.31
1023.97 1024.01 1023.73 1023.44 1023.22 1023.10 1022.93 1022.77 1022.50 1022.53 1022.36 1022.38 1022.13 1021.71 1021.56 1021.75 1021.34 1021.33 1021.16 1021.12 1020.97 1020.71 1020.25 1020.05 1019.77 1019.67 1019.24 1018.84 1018.44 1018.21 1018.15 1018.13 1017.82 1017.58 1017.43 1017.44 1017.55 1017.39 1017.59 1017.85 1018.10 1018.19 1018.29
1024.16 1024.13 1023.91 1023.64 1023.60 1023.49 1023.30 1023.15 1022.90 1022.69 1022.72 1022.65 1022.28 1022.13 1022.47 1022.08 1021.92 1021.75 1021.60 1021.39 1021.16 1021.14 1020.79 1020.58 1020.45 1020.02 1019.71 1019.18 1018.88 1018.66 1018.59 1018.44 1018.36 1017.85 1017.74 1017.49 1017.49 1017.33 1017.41 1017.64 1017.92 1018.12 1018.31
1024.06 1024.18 1024.15 1023.88 1023.68 1023.72 1023.66 1023.40 1023.19 1023.38 1022.98 1023.09 1022.98 1022.74 1022.71 1022.55 1022.55 1022.27 1022.23 1021.76 1021.62 1021.59 1021.16 1020.91 1020.79 1020.45 1020.05 1019.64 1019.23 1018.96 1018.87 1018.58 1018.36 1018.10 1017.81 1017.64 1017.52 1017.28 1017.18 1017.36 1017.67 1017.89 1018.17
1024.06 1024.29 1024.47 1024.34 1024.14 1023.88 1023.63 1023.48 1023.63 1023.53 1023.43 1023.61 1023.59 1023.39 1023.37 1023.41 1022.91 1022.62 1022.78 1022.55 1022.12 1022.15 1021.68 1021.30 1021.12 1020.68 1020.51 1020.44 1019.85 1019.55 1019.23 1018.67 1018.55 1018.34 1018.04 1017.77 1017.60 1017.14 1017.05 1017.19 1017.46 1017.64 1017.93
1024.31 1024.45 1024.62 1024.59 1024.49 1024.56 1024.52 1024.24 1024.13 1024.03 1024.07 1024.12 1023.97 1024.09 1024.07 1023.75 1023.34 1023.63 1023.50 1022.82 1023.19 1022.69 1022.35 1021.99 1021.75 1021.39 1020.96 1020.90 1020.53 1020.04 1019.60 1019.26 1019.01 1018.76 1018.54 1018.20 1018.03 1017.72 1017.16 1017.05 1017.29 1017.45 1017.65
1024.56 1024.68 1024.78 1024.86 1024.79 1024.75 1024.58 1024.51 1024.65 1024.70 1024.76 1024.74 1024.88 1024.72 1024.65 1024.39 1024.55 1024.67 1024.20 1023.87 1023.71 1023.19 1023.00 1022.70 1022.51 1022.14 1021.70 1021.31 1021.15 1020.71 1020.27 1020.20 1019.71 1019.23 1018.91 1018.69 1018.51 1018.18 1017.83 1017.50 1017.08 1017.20 1017.49
1024.86 1024.99 1025.11 1025.13 1025.10 1024.92 1024.72 1024.94 1024.89 1024.77 1024.82 1025.08 1025.30 1025.18 1024.89 1024.95 1024.87 1025.04 1024.89 1024.60 1024.30 1023.75 1023.69 1023.42 1022.96 1022.96 1022.37 1022.04 1021.64 1021.48 1021.19 1020.77 1020.39 1019.75 1019.35 1019.18 1018.86 1018.40 1018.19 1017.90 1017.58 1017.15 1017.21
1024.61 1024.88 1025.13 1025.24 1025.29 1025.27 1025.15 1025.16 1025.17 1025.25 1025.31 1025.37 1025.43 1025.43 1025.52 1025.76 1025.94 1025.71 1025.50 1024.99 1024.59 1024.43 1024.48 1023.79 1023.71 1023.79 1023.13 1022.55 1022.34 1022.11 1021.82 1021.23 1020.80 1020.53 1020.03 1019.67 1019.31 1018.77 1018.52 1018.27 1017.90 1017.67 1017.17
1024.35 1024.63 1024.88 1025.04 1025.14 1025.19 1025.19 1025.26 1025.17 1025.20 1025.20 1025.27 1025.24 1025.28 1025.57 1025.80 1025.94 1026.00 1025.87 1025.65 1025.33 1024.90 1024.54 1024.37 1024.44 1023.95 1023.58 1023.07 1022.97 1022.35 1022.17 1021.75 1021.44 1020.83 1020.26 1020.07 1019.61 1019.29 1018.79 1018.43 1018.13 1017.83 1017.45
1024.40 1024.70 1024.87 1024.88 1024.94 1024.96 1025.09 1025.24 1025.36 1025.48 1025.45 1025.43 1025.47 1025.51 1025.79 1026.15 1026.33 1026.08 1025.85 1025.56 1025.37 1025.22 1025.05 1024.71 1024.57 1024.20 1024.05 1023.54 1023.11 1022.89 1022.55 1022.26 1021.73 1021.14 1020.69 1020.29 1019.99 1019.66 1019.19 1018.69 1018.26 1017.89 1017.52
1024.07 1024.48 1024.80 1024.94 1024.93 1024.98 1025.37 1025.56 1025.73 1025.70 1025.74 1025.80 1025.84 1025.86 1026.04 1026.23 1026.33 1026.30 1026.22 1026.23 1026.09 1025.73 1025.64 1025.60 1025.02 1024.57 1024.37 1024.09 1023.51 1023.00 1022.71 1022.45 1021.95 1021.48 1020.85 1020.42 1020.08 1019.86 1019.54 1019.12 1018.47 1018.05 1017.64
1023.64 1024.13 1024.55 1024.79 1025.04 1025.31 1025.53 1025.71 1025.81 1025.78 1025.71 1025.89 1025.86 1025.77 1025.83 1025.80 1025.92 1026.01 1026.06 1026.09 1025.92 1025.64 1025.44 1025.27 1025.03 1024.86 1024.59 1024.05 1023.73 1023.33 1023.00 1022.48 1021.99 1021.72 1021.18 1020.44 1020.09 1019.67 1019.44 1019.11 1018.62 1018.14 1017.87
1023.38 1023.81 1024.15 1024.23 1025.02 1025.31 1025.50 1025.66 1025.79 1025.96 1025.99 1026.08 1026.04 1026.09 1026.09 1026.10 1026.14 1026.28 1026.39 1026.35 1026.25 1025.98 1025.84 1025.73 1025.48 1024.97 1024.60 1024.35 1023.91 1023.44 1023.12 1022.66 1022.12 1021.69 1021.04 1020.71 1020.16 1019.75 1019.19 1018.84 1018.58 1018.33 1017.76
1022.80 1023.54 1024.07 1024.53 1024.94 1025.21 1025.38 1025.64 1025.86 1026.03 1026.27 1026.36 1026.30 1026.46 1026.49 1026.39 1026.32 1026.37 1026.36 1026.34 1026.30 1026.20 1026.07 1025.75 1025.53 1025.33 1024.97 1024.72 1024.09 1023.60 1023.20 1022.57 1021.96 1021.67 1021.27 1020.75 1020.32 1019.89 1019.31 1018.89 1018.50 1018.03 1017.93
1022.96 1023.33 1023.92 1024.52 1025.03 1025.36 1025.65 1025.95 1026.25 1026.40 1026.44 1026.38 1026.41 1026.27 1026.17 1026.19 1026.15 1026.28 1026.24 1026.20 1026.14 1026.15 1026.13 1026.14 1025.81 1025.44 1024.98 1024.60 1023.92 1023.40 1022.88 1021.85 1021.75 1021.77 1021.34 1020.75 1020.34 1019.95 1019.58 1019.09 1018.60 1018.31 1018.00
1023.10 1023.59 1024.00 1024.39 1024.90 1025.33 1025.71 1026.11 1026.34 1026.59 1026.55 1026.37 1026.23 1026.02 1026.03 1025.98 1025.91 1025.96 1026.09 1026.04 1025.86 1025.92 1025.87 1025.63 1025.32 1025.04 1024.73 1024.34 1023.59 1023.34 1022.31 1021.67 1021.83 1021.91 1021.52 1021.11 1020.53 1020.32 1020.08 1019.77 1019.20 1018.64 1018.44
1022.68 1023.41 1023.98 1024.33 1024.78 1025.10 1025.41 1025.72 1025.99 1026.25 1026.37 1026.33 1026.21 1026.15 1026.14 1026.05 1026.04 1025.95 1026.14 1026.14 1026.12 1026.11 1026.02 1025.82 1025.73 1025.52 1025.24 1024.98 1024.83 1023.69 1022.94 1022.13 1021.63 1021.78 1021.76 1021.42 1020.96 1020.78 1020.39 1019.73 1019.52 1019.30 1018.86
1022.31 1023.07 1023.55 1024.01 1024.44 1024.81 1025.08 1025.47 1025.80 1026.08 1026.24 1026.37 1026.31 1026.18 1026.14 1026.15 1026.10 1026.12 1026.15 1026.22 1026.17 1026.07 1026.10 1025.99 1025.85 1025.74 1025.60 1025.35 1025.48 1025.62 1024.78 1023.87 1022.65 1021.55 1022.03 1021.48 1021.52 1021.08 1020.76 1020.40 1020.00 1019.82 1019.05
1022.05 1022.66 1023.15 1023.78 1024.31 1024.66 1024.94 1025.47 1026.03 1026.34 1026.55 1026.58 1026.53 1026.34 1026.28 1026.06 1026.12 1026.06 1025.89 1025.87 1025.75 1025.77 1025.93 1025.82 1025.22 1025.54 1025.60 1025.72 1025.52 1025.61 1025.64 1025.84 1025.09 1023.03 1022.24 1021.81 1021.48 1021.35 1021.07 1020.67 1020.39 1019.83 1019.41
1021.72 1022.72 1023.27 1023.84 1024.33 1024.70 1025.05 1025.51 1025.92 1026.34 1026.47 1026.38 1026.43 1026.38 1026.35 1026.14 1026.05 1025.88 1025.65 1025.51 1025.64 1025.85 1025.64 1025.52 1025.38 1025.48 1025.56 1025.88 1025.85 1025.69 1025.62 1025.71 1025.43 1024.93 1022.50 1022.19 1021.44 1021.21 1021.03 1020.55 1020.09 1019.68 1019.18
1021.20 1022.33 1023.04 1023.72 1024.31 1024.70 1025.09 1025.45 1025.79 1026.18 1026.36 1026.39 1026.32 1026.42 1026.33 1026.18 1025.92 1025.57 1025.27 1025.34 1025.44 1025.36 1025.17 1025.18 1025.36 1025.51 1025.52 1025.59 1025.63 1025.95 1026.19 1025.85 1024.98 1024.34 1023.40 1022.33 1021.95 1020.83 1020.76 1020.21 1019.85 1019.64 1019.08
Wind_Speed
3 6 12 11 13 15 17 20 21 21 23 23 22 23 24 24 24 25 26 22 21 22 19 17 10 6 6 8 12 10 8 8 8 6 7 8 8 9 8 8 6 6 9
3 5 10 10 13 15 16 19 20 21 21 21 22 23 24 23 23 23 24 24 24 23 22 20 21 8 6 5 9 11 9 7 5 3 2 3 3 5 7 9 10 6 7
4 5 8 11 12 14 16 18 20 20 20 20 20 21 22 22 22 23 23 22 22 23 23 22 21 19 18 7 8 9 8 7 4 4 4 1 1 1 5 8 7 7 7
7 3 5 10 12 14 16 17 19 19 19 19 19 19 20 20 20 22 22 22 22 21 21 21 21 20 18 19 12 8 9 8 4 5 3 3 4 6 5 6 8 7 6
7 2 3 9 12 14 15 17 18 18 19 20 19 19 20 20 20 20 21 20 21 20 21 20 20 19 19 19 18 15 16 17 7 4 4 3 5 7 7 6 6 7 6
7 3 4 9 12 13 14 16 17 17 19 19 19 19 20 19 20 20 21 19 19 19 20 20 19 18 18 18 17 17 17 17 14 5 5 5 3 8 7 7 5 6 6
7 5 2 8 10 12 13 14 16 17 18 19 20 20 18 20 19 20 20 20 20 19 18 19 18 19 18 16 16 16 17 17 10 7 6 5 5 6 7 5 6 6 7
7 5 5 6 9 11 12 14 16 15 18 19 20 20 20 21 20 20 20 20 19 19 18 19 19 18 19 17 17 18 18 16 9 7 7 5 8 10 8 7 3 7 8
6 6 5 5 7 10 13 14 15 17 18 19 20 20 20 20 21 21 20 20 20 19 19 20 19 19 19 19 19 19 20 16 7 6 8 4 12 12 8 7 6 6 10
6 6 5 5 5 4 5 12 14 16 17 18 20 19 19 20 21 21 20 21 19 20 21 21 21 20 20 20 20 20 20 17 12 8 6 7 19 19 9 7 7 8 10
5 5 5 4 4 3 5 8 11 15 16 17 15 19 12 8 7 11 18 19 19 20 20 21 21 21 21 19 20 20 17 7 9 8 6 16 18 18 17 14 9 9 9
5 4 4 4 5 5 5 6 6 7 5 6 6 7 7 8 9 11 14 18 18 20 21 21 22 21 17 9 8 15 7 9 7 8 7 21 20 19 19 18 17 10 10
7 4 5 4 4 5 4 3 3 3 3 3 6 5 6 6 3 4 4 5 5 13 6 10 10 7 10 8 8 8 10 9 7 7 10 21 22 21 21 20 18 19 13
7 7 6 5 5 5 3 3 3 3 3 3 4 6 4 3 5 4 3 5 5 5 7 7 5 7 9 9 9 9 9 8 7 7 9 21 22 22 22 21 20 19 17
7 6 6 6 4 4 5 4 4 4 4 3 4 4 4 3 3 3 4 4 5 5 5 6 6 6 7 10 9 10 9 9 9 6 6 20 21 22 23 23 22 21 20
9 7 6 5 4 5 4 5 3 3 4 4 3 3 5 3 3 3 3 2 2 2 3 4 5 6 6 7 9 10 10 9 8 7 7 9 20 21 22 24 23 22 21
9 8 7 6 6 6 4 3 3 3 4 4 3 5 6 5 5 5 4 5 4 4 5 4 4 3 5 7 9 9 8 9 9 10 8 8 10 18 20 22 23 23 22
10 9 7 7 6 5 4 3 3 3 3 3 4 4 6 5 4 4 4 4 5 4 4 4 3 4 4 6 6 6 7 9 11 11 9 8 8 8 12 19 22 23 24
11 9 7 6 6 5 3 1 1 3 3 2 3 2 2 2 1 2 2 2 4 4 4 4 4 3 4 4 8 7 7 9 8 8 11 11 11 10 8 16 22 23 24
9 8 8 6 6 5 3 2 2 3 2 2 2 2 3 2 3 3 2 3 3 3 3 3 3 3 3 5 9 8 7 9 7 5 7 9 8 9 10 11 7 8 18
8 8 7 7 7 4 2 2 2 0 2 2 3 5 4 3 5 5 4 4 4 4 5 6 4 5 4 5 4 8 6 5 2 4 7 5 8 11 11 11 8 6 8
10 8 7 7 7 5 3 2 2 1 2 3 3 2 3 4 4 4 4 4 4 4 6 5 4 5 3 5 6 6 5 3 5 9 5 7 8 10 11 11 12 12 10
12 9 9 8 7 5 5 2 2 1 2 2 2 2 2 4 4 4 4 3 4 2 3 3 3 4 4 5 5 3 5 5 14 1 12 4 13 8 8 10 11 12 12
11 9 9 8 7 5 6 3 2 1 1 2 2 1 4 4 5 5 3 3 3 2 3 4 4 2 3 7 4 3 3 4 5 9 6 11 8 10 12 8 10 11 12
10 8 7 8 7 6 5 4 3 2 2 2 2 3 4 4 5 4 3 3 3 3 3 3 4 5 2 2 3 4 2 4 6 9 12 9 11 7 8 10 10 9 10
10 10 8 8 6 6 5 4 3 4 3 2 2 3 3 3 3 4 5 3 3 3 3 3 3 4 4 4 2 4 6 7 7 7 11 11 12 14 10 9 8 8 9
Wind_Direction
18 317 329 11 34 39 41 46 44 44 42 40 39 46 41 41 43 40 35 34 43 45 45 47 53 59 28 25 45 36 51 61 50 57 69 70 65 86 72 37 25 78 77
116 330 1 27 40 44 43 49 48 46 47 45 40 39 44 40 41 43 41 32 33 38 38 39 39 27 0 9 27 10 20 63 58 37 40 81 85 101 94 52 89 101 91
110 28 327 44 45 48 48 49 50 48 47 48 47 47 45 42 37 41 40 35 34 32 34 33 33 28 24 8 9 354 350 28 35 352 318 344 302 187 113 98 91 98 93
100 21 348 52 53 51 50 51 53 51 47 49 49 48 48 48 44 41 38 35 33 29 30 28 28 23 20 21 18 338 342 344 352 321 317 301 281 203 162 135 120 112 103
108 71 43 67 60 56 55 53 53 50 48 46 45 47 47 44 47 44 42 38 32 29 29 26 22 18 14 12 13 12 14 5 327 306 299 288 296 169 170 160 147 135 129
122 107 87 78 63 60 56 54 53 51 49 45 42 44 43 39 41 40 38 37 33 29 30 24 21 15 11 8 5 7 6 1 348 320 298 294 320 151 171 169 177 165 151
132 132 66 90 80 65 61 57 55 49 47 43 41 42 39 40 37 36 32 31 31 24 28 25 19 14 12 9 11 6 0 355 346 337 308 316 303 163 148 171 200 207 178
124 110 68 71 85 72 62 57 53 50 49 44 40 40 38 35 32 32 28 28 26 22 24 21 19 15 13 12 12 7 354 346 340 321 317 308 314 266 194 176 175 210 200
114 105 96 60 56 56 56 54 51 47 46 44 40 39 38 33 33 29 27 25 24 22 18 19 14 18 14 7 7 5 355 344 2 349 330 333 325 301 212 179 196 211 216
112 103 95 72 53 78 48 64 57 52 49 43 38 38 37 33 36 26 25 24 17 24 18 16 11 11 12 6 5 2 359 2 352 346 341 360 355 354 273 204 217 226 221
110 101 85 71 42 76 76 63 58 56 53 50 45 37 29 23 21 25 20 24 16 24 17 14 9 9 8 6 1 1 3 356 345 346 342 349 350 342 337 313 218 227 239
125 102 93 69 44 39 66 61 63 60 51 47 52 35 21 26 26 29 19 22 19 24 14 15 12 6 7 1 359 358 353 348 347 345 335 341 340 337 334 336 338 245 231
148 116 108 95 69 55 53 70 68 74 69 53 63 60 47 36 20 9 359 1 7 23 13 8 4 357 360 358 358 354 348 349 347 336 334 333 334 334 330 328 333 335 265
137 138 117 96 83 67 62 49 53 52 53 48 50 59 56 34 19 11 10 357 3 12 8 6 349 344 349 355 349 352 348 347 339 334 334 333 333 330 326 322 321 318 321
134 132 124 107 89 74 56 38 34 35 31 27 43 45 73 52 19 7 357 356 1 5 358 356 350 350 351 352 348 345 342 335 331 333 328 331 329 326 323 322 318 314 311
142 142 132 108 91 79 63 43 29 32 20 31 49 58 81 89 43 49 18 358 358 0 337 327 333 343 353 345 344 341 333 323 322 321 323 325 321 320 319 314 314 310 307
150 145 142 139 118 98 89 57 41 23 28 28 25 28 50 41 33 21 13 4 352 348 348 343 341 352 346 342 336 333 320 326 328 316 311 311 311 313 312 309 308 306 305
147 150 166 142 125 105 88 66 26 18 20 22 25 23 45 38 43 36 17 358 340 348 344 336 350 344 337 332 325 318 328 321 310 305 302 310 309 302 305 307 303 299 299
150 149 145 133 137 134 124 107 3 16 36 18 29 40 21 14 22 75 41 342 341 348 342 343 341 334 329 323 322 321 317 296 292 311 315 305 306 305 307 309 311 307 299
145 143 147 148 149 149 121 77 59 38 14 9 345 288 322 338 19 53 2 352 357 354 336 327 326 315 319 320 321 311 288 285 300 307 306 312 319 350 351 342 321 333 343
143 146 159 156 164 139 121 114 90 162 305 318 306 297 345 23 33 11 360 352 357 355 339 338 328 337 337 326 313 322 264 259 260 350 337 336 344 351 345 338 349 359 340
158 164 164 163 159 150 144 161 152 185 277 265 304 6 12 31 11 336 333 322 328 334 332 335 346 335 318 355 345 321 347 325 16 335 350 334 3 342 331 337 332 347 338
166 171 169 161 155 153 140 106 56 27 8 354 355 349 360 339 319 298 274 251 266 273 294 301 310 335 337 346 22 6 337 333 336 15 329 357 340 326 339 331 328 331 328
174 168 152 149 146 151 141 122 146 170 247 245 250 281 311 320 304 292 288 278 272 271 276 278 306 334 348 320 329 314 255 282 298 316 321 318 306 332 316 319 322 322 323
157 155 148 142 150 148 154 154 169 201 231 258 293 320 312 304 313 316 314 318 309 278 274 284 308 311 313 298 296 318 307 282 264 272 296 307 302 309 312 309 308 311 319
151 151 148 148 163 155 148 149 164 205 249 275 301 300 295 282 297 325 331 321 294 289 294 291 269 248 250 251 256 260 264 267 281 283 286 296 296 308 304 303 300 306 299